GW2818 Weather Reports


Display with metric or nautical units.
time (UTC)temp
F
wind
direction
speed
MPH
gust
MPH
rain 1hr
in
rain 24hr
in
rain mn
in
humidity
%
barometer
mb
20260906020046 66 0 0.0 0.0 0.00 0.00 0.00 88 1015.2
20260906014549 66 0 0.0 0.0 0.00 0.00 0.00 89 1015.0
20260906013050 66 0 0.0 0.0 0.00 0.00 0.00 90 1014.9
20260906011549 66 0 0.0 0.0 0.00 0.00 0.00 89 1014.7
20260906010146 67 0 0.0 0.0 0.00 0.00 0.00 88 1014.6
20260906004555 67 0 0.0 0.0 0.00 0.00 0.00 87 1014.4
20260906003053 68 0 0.0 0.0 0.00 0.00 0.00 86 1014.5
20260906001558 69 0 0.0 0.0 0.00 0.00 0.00 85 1014.3
20260906000046 70 0 0.0 0.0 0.00 0.00 0.00 83 1014.0
20260905234544 71 0 0.0 0.0 0.00 0.00 0.00 82 1014.0
20260905233043 72 0 0.0 0.0 0.00 0.00 0.00 80 1014.1
20260905231550 73 0 0.0 0.0 0.00 0.00 0.00 79 1013.9
20260905230047 74 0 0.0 1.0 0.00 0.00 0.00 78 1013.8
20260905224542 74 0 0.0 0.0 0.00 0.00 0.00 79 1013.9
20260905223055 74 0 0.0 1.0 0.00 0.00 0.00 79 1013.6
20260905221552 75 0 0.0 1.0 0.00 0.00 0.00 80 1013.5
20260905220045 76 0 0.0 0.0 0.00 0.00 0.00 82 1013.5
20260905214548 77 0 0.0 0.0 0.00 0.00 0.00 79 1013.3
20260905213050 77 0 0.0 1.0 0.00 0.00 0.00 81 1013.2
20260905211545 77 233 0.0 1.0 0.00 0.00 0.00 82 1013.0
20260905204547 76 0 0.0 0.0 0.00 0.00 0.00 82 1013.4
20260905203042 76 0 0.0 1.0 0.00 0.00 0.00 81 1013.5
20260905201545 76 0 0.0 2.0 0.00 0.00 0.00 82 1013.5
20260905200112 76 0 0.0 0.0 0.00 0.00 0.00 82 1013.6
20260905194545 76 0 0.0 0.0 0.00 0.00 0.00 81 1013.8
20260905193042 77 0 0.0 1.0 0.00 0.00 0.00 80 1013.8
20260905191549 77 0 0.0 1.0 0.00 0.00 0.00 83 1014.1
20260905190048 76 0 0.0 0.0 0.00 0.00 0.00 83 1014.2
20260905184555 77 0 0.0 0.0 0.00 0.00 0.00 82 1014.2
20260905183044 76 0 0.0 1.0 0.00 0.00 0.00 83 1014.3
20260905181555 76 0 0.0 3.0 0.00 0.00 0.00 84 1014.4
20260905180049 77 0 0.0 4.0 0.00 0.00 0.00 84 1014.4
20260905174544 76 31 0.0 3.0 0.00 0.00 0.00 86 1014.4
20260905173050 74 0 0.0 2.0 0.00 0.00 0.00 87 1014.5
20260905171550 73 0 0.0 3.0 0.00 0.00 0.00 88 1014.5
20260905170047 74 0 0.0 1.0 0.00 0.00 0.00 88 1014.8
20260905164545 74 0 0.0 0.0 0.00 0.00 0.00 89 1015.0
20260905163050 74 0 0.0 0.0 0.00 0.00 0.00 89 1015.1
20260905161548 74 0 0.0 1.0 0.00 0.00 0.00 87 1015.4
20260905160045 74 0 0.0 0.0 0.00 0.00 0.00 86 1015.5
20260905154559 74 0 0.0 1.0 0.00 0.07 0.00 87 1015.4
20260905153048 74 0 0.0 1.0 0.00 0.07 0.00 87 1015.3
20260905151555 73 0 0.0 0.0 0.00 0.07 0.00 89 1015.2
20260905150049 73 0 0.0 1.0 0.00 0.07 0.00 89 1014.9
20260905144550 72 0 0.0 0.0 0.00 0.07 0.00 91 1014.9
20260905143048 70 0 0.0 0.0 0.00 0.07 0.00 93 1014.8
20260905141547 69 0 0.0 1.0 0.00 0.07 0.00 93 1014.7
20260905140054 70 0 0.0 0.0 0.00 0.07 0.00 93 1014.6
20260905134550 69 0 0.0 1.0 0.00 0.07 0.00 93 1015.0
20260905133047 68 0 0.0 0.0 0.00 0.07 0.00 93 1015.1
20260905131553 68 0 0.0 0.0 0.00 0.07 0.00 93 1015.1
20260905130043 67 0 0.0 0.0 0.00 0.07 0.00 93 1015.1
20260905124549 67 0 0.0 0.0 0.00 0.07 0.00 93 1015.1
20260905123106 67 0 0.0 0.0 0.00 0.07 0.00 93 1015.0
20260905121551 67 0 0.0 0.0 0.00 0.07 0.00 93 1015.3
20260905120049 67 0 0.0 0.0 0.00 0.07 0.00 93 1015.2
20260905114546 67 0 0.0 0.0 0.00 0.07 0.00 93 1015.0
20260905113049 67 0 0.0 0.0 0.00 0.07 0.00 93 1014.6
20260905111555 67 0 0.0 0.0 0.00 0.07 0.00 93 1014.6
20260905110046 67 0 0.0 0.0 0.00 0.07 0.00 93 1014.7
20260905104554 67 0 0.0 0.0 0.00 0.07 0.00 93 1014.7
20260905103057 67 0 0.0 1.0 0.00 0.07 0.00 93 1014.7
20260905101548 68 0 0.0 0.0 0.00 0.07 0.00 93 1014.4
20260905100055 68 0 0.0 0.0 0.00 0.07 0.00 93 1014.0
20260905094542 68 0 0.0 0.0 0.00 0.07 0.00 93 1013.9
20260905093042 68 0 0.0 0.0 0.00 0.07 0.00 93 1013.9
20260905091554 68 0 0.0 0.0 0.00 0.07 0.00 93 1013.9
20260905090046 68 0 0.0 0.0 0.00 0.07 0.00 93 1013.9
20260905084548 68 0 0.0 0.0 0.00 0.07 0.00 93 1013.8
20260905083051 68 0 0.0 0.0 0.00 0.07 0.00 93 1013.8
20260905081547 68 0 0.0 0.0 0.00 0.07 0.00 93 1014.0
20260905080113 68 0 0.0 0.0 0.00 0.07 0.00 93 1013.9
20260905074550 69 0 0.0 0.0 0.00 0.07 0.00 93 1013.9
20260905073046 69 0 0.0 0.0 0.00 0.07 0.00 93 1014.2
20260905071544 68 0 0.0 0.0 0.00 0.07 0.00 93 1014.3
20260905070055 68 0 0.0 0.0 0.00 0.07 0.00 93 1014.5
20260905064554 68 0 0.0 0.0 0.00 0.07 0.00 93 1014.9
20260905063045 68 0 0.0 0.0 0.00 0.07 0.00 93 1015.0
20260905061558 68 0 0.0 0.0 0.00 0.07 0.00 93 1015.0
20260905060057 68 0 0.0 0.0 0.00 0.07 0.00 93 1015.1
20260905054553 68 0 0.0 0.0 0.00 0.47 0.00 93 1015.4
20260905053051 68 0 0.0 0.0 0.00 0.47 0.00 93 1015.7
20260905051553 68 0 0.0 0.0 0.00 0.47 0.00 93 1015.8
20260905050050 68 0 0.0 0.0 0.00 0.47 0.00 93 1015.8
20260905044549 68 0 0.0 0.0 0.00 0.47 0.00 93 1015.7
20260905043101 68 0 0.0 0.0 0.00 0.47 0.00 93 1015.5
20260905041552 69 0 0.0 0.0 0.00 0.47 0.00 93 1015.3
20260905040052 69 0 0.0 0.0 0.00 0.47 0.00 93 1015.4
20260905034545 69 0 0.0 0.0 0.00 0.47 0.47 93 1015.5
20260905033059 69 0 0.0 0.0 0.00 0.47 0.47 93 1015.5
20260905031548 69 0 0.0 0.0 0.00 0.47 0.47 93 1015.6
20260905030049 69 0 0.0 0.0 0.00 0.47 0.47 93 1015.3
20260905024551 70 0 0.0 0.0 0.00 0.47 0.47 93 1015.5
20260905023051 70 0 0.0 0.0 0.00 0.47 0.47 93 1015.6
20260905021552 70 0 0.0 0.0 0.00 0.47 0.47 93 1015.7